Regional Weather Roundup
Issued by NWS

Home | Current Version | Previous Version | Graphics & Text | Print | Product List | Glossary On
Versions: 1 2 3 4 5 6 7 8 9 10 11 12 13 14 15 16 17 18 19 20 21 22 23 24 25 26 27 28 29 30 31 32 33 34 35 36 37 38 39 40 41 42 43 44 45 46 47 48 49 50
000
ASUS43 KOAX 010502
RWRNE

WEATHER ROUNDUP FOR NEBRASKA
NATIONAL WEATHER SERVICE OMAHA NE
1200 AM CDT FRI AUG 01 2014

NOTES: SATELLITE DATA IS BEING USED TO AUGMENT CLOUD COVER ABOVE
       12000 FEET.
       "FAIR" INDICATES FEW OR NO CLOUDS BELOW 12,000 FEET WITH NO
       SIGNIFICANT WEATHER AND/OR OBSTRUCTIONS TO VISIBILITY.

  * THESE STATIONS DO NOT REPORT WEATHER SUCH AS RAIN...SNOW OR FOG.

NEZ001>004-019>022-054>056-010600-
NEBRASKA PANHANDLE

CITY           SKY/WX    TMP DP  RH WIND       PRES   REMARKS
SCOTTSBLUFF    CLEAR     63  51  65 E5        30.19S
ALLIANCE       PTCLDY    63  46  54 CALM      30.19R
CHADRON        CLEAR     64  49  57 CALM      30.15R
KIMBALL        PTCLDY    61  50  67 S3        30.23S
SIDNEY         PTCLDY    66  43  43 E8        30.22S
$$

NEZ057>060-069>072-079>082-010600-
SOUTHWEST NEBRASKA

CITY           SKY/WX    TMP DP  RH WIND       PRES   REMARKS
NORTH PLATTE   CLEAR     61  53  75 NE3       30.12R
IMPERIAL       CLEAR     66  55  67 E9        30.15S
LEXINGTON      CLEAR     63  58  83 CALM      30.10S
MCCOOK         CLEAR     68  56  65 NE5       30.11R
OGALLALA       CLEAR     60  52  74 CALM      30.15S
$$

NEZ005>010-023>029-035>040-094-010600-
NORTH CENTRAL NEBRASKA

CITY           SKY/WX    TMP DP  RH WIND       PRES   REMARKS
VALENTINE      CLEAR     70  56  61 SE7       30.11R
AINSWORTH      CLEAR     65  60  84 SE5       30.12R
BROKEN BOW     CLEAR     61  58  90 NE3       30.11R
O`NEILL        CLEAR     67  63  85 SE3       30.10R
ORD            CLEAR     62  59  90 CALM      30.08R
THEDFORD       CLEAR     67  54  64 SE3       30.14R
$$

NEZ041-046>049-061>064-073>077-083>087-010600-
SOUTH CENTRAL NEBRASKA

CITY           SKY/WX    TMP DP  RH WIND       PRES   REMARKS
GRAND ISLAND   CLEAR     66  62  87 N8        30.07R
AURORA         CLEAR     65  65  97 N7        30.05R
HASTINGS       CLEAR     68  60  75 N7        30.05R
HEBRON         CLOUDY    73  51  45 S9        30.03S
HOLDREGE       CLEAR     65  58  80 CALM      30.08S
KEARNEY *      CLEAR     64  59  82 NE3       30.08R
YORK           CLEAR     66  64  94 SE6       30.04S
$$

NEZ011>018-030>034-042>045-010600-
NORTHEAST NEBRASKA

CITY           SKY/WX    TMP DP  RH WIND       PRES   REMARKS
NORFOLK        CLEAR     65  60  84 E3        30.07R
ALBION         CLEAR     65  60  82 CALM      30.08S
BLAIR          CLOUDY    67  60  77 S6        30.06S
COLUMBUS *     PTCLDY    63  61  94 E6        30.07R
FREMONT        MOCLDY    69  62  79 SE9       30.06S
TEKAMAH        MOCLDY    65  60  84 CALM      30.07R
WAYNE          CLEAR     62  60  94 CALM      30.08S
$$

NEZ050>053-065>068-078-088>093-010600-
SOUTHEAST NEBRASKA

CITY           SKY/WX    TMP DP  RH WIND       PRES   REMARKS
LINCOLN        PTCLDY    73  56  54 E6        30.05R
OMAHA EPPLEY   MOCLDY    71  60  68 SE8       30.06R
BEATRICE       MOCLDY    74  55  50 NE7       30.04R
FALLS CITY     CLOUDY    69  58  67 SE7       30.03S
NEBRASKA CITY  MOCLDY    68  61  77 SE8       30.06S
PLATTSMOUTH    RAIN      67  62  85 CALM      30.07S
$$

NEZ044-045-051>053-067-010600-
OMAHA AREA

CITY           SKY/WX    TMP DP  RH WIND       PRES   REMARKS
OMAHA EPPLEY   MOCLDY    71  60  68 SE8       30.06R
BLAIR          CLOUDY    67  60  77 S6        30.06S
FREMONT        MOCLDY    69  62  79 SE9       30.06S
MILLARD        CLOUDY    69  61  77 SE6       30.06R
OFFUTT AFB     MOCLDY    68  67  96 S9        30.06R
PLATTSMOUTH    RAIN      67  62  85 CALM      30.07S
WAHOO          HVY RAIN  67  62  85 SE14      30.05S
$$



USA.gov is the U.S. government's official web portal to all federal, state and local government web resources and services.